Weather History for Key West, FL

Change the Weather History Date:

Saturday, February 1, 2014

  Actual Average Record
Temperature  
Mean Temperature 75 °F 70 °F  
Max Temperature 80 °F 75 °F 85 °F (1957)
Min Temperature 70 °F 65 °F 47 °F (1909)
Degree Days  
Heating Degree Days 0 1  
Month to date heating degree days 0 1  
Since 1 July heating degree days 22 52  
Cooling Degree Days 10 6  
Month to date cooling degree days 10 6  
Year to date cooling degree days 167 171  
Growing Degree Days 25 (Base 50)    
Moisture  
Dew Point 71 °F    
Average Humidity 90    
Maximum Humidity 100    
Minimum Humidity 79    
Precipitation  
Precipitation T in 0.06 in 1.60 in (2010)
Month to date precipitation T 0.06  
Year to date precipitation 6.68 2.10  
Snow  
Snow 0.00 in - - ()
Month to date snowfall 0.0  
Since 1 July snowfall 0.0  
Snow Depth 0.00 in    
Sea Level Pressure  
Sea Level Pressure 30.08 in    
Wind  
Wind Speed 8 mph (East)    
Max Wind Speed 13 mph    
Max Gust Speed 20 mph    
Visibility 10 miles    
Events      
T = Trace of Precipitation, MM = Missing Value Source: NWS Daily Summary

Daily Weather History Graph

Daily Weather History Graph

Search for Another Location

Airport:

Trip Planner

Search our weather history database for the weather conditions in past years. The results will help you decide how hot, cold, wet, or windy it might be!

Date:

Astronomy

Feb. 01, 2014 Rise Set
Actual Time 7:08 AM EST 6:12 PM EST
Civil Twilight 6:45 AM EST 6:36 PM EST
Nautical Twilight 6:17 AM EST 7:03 PM EST
Astronomical Twilight 5:50 AM EST 7:30 PM EST
Moon 8:15 AM EST (2/1) 8:24 PM EST (2/1)
Length of Visible Light 11h 51m
Length of Day
11h 03m
Waxing Crescent, 5% of the Moon is Illuminated
Feb 1
Waxing Crescent
Feb 6
First Quarter
Feb 14
Full
Feb 22
Last Quarter
Mar 1
New

Hourly Weather History & Observations

Time (EST) Temp. Dew Point Humidity Pressure Visibility Wind Dir Wind Speed Gust Speed Precip Events Conditions
12:09 AM 72.0 °F 71.1 °F 97% 30.08 in 10.0 mi WNW 8.1 mph - 0.00 in   Overcast
12:53 AM 72.0 °F 71.1 °F 97% 30.08 in 10.0 mi NW 4.6 mph - 0.00 in   Overcast
1:53 AM 71.1 °F 70.0 °F 96% 30.07 in 10.0 mi North 5.8 mph - N/A   Overcast
2:53 AM 71.1 °F 70.0 °F 96% 30.06 in 10.0 mi North 4.6 mph - N/A   Overcast
3:53 AM 71.1 °F 70.0 °F 96% 30.05 in 10.0 mi North 4.6 mph - N/A   Scattered Clouds
4:53 AM 71.1 °F 70.0 °F 96% 30.06 in 10.0 mi NE 4.6 mph - N/A   Mostly Cloudy
5:53 AM 71.1 °F 70.0 °F 96% 30.06 in 10.0 mi NE 5.8 mph - N/A   Overcast
6:53 AM 71.1 °F 69.1 °F 93% 30.07 in 10.0 mi ENE 6.9 mph - N/A   Overcast
7:53 AM 72.0 °F 70.0 °F 93% 30.08 in 10.0 mi East 5.8 mph - N/A   Overcast
8:53 AM 75.9 °F 72.0 °F 87% 30.10 in 10.0 mi East 10.4 mph - N/A   Overcast
9:53 AM 77.0 °F 71.1 °F 82% 30.12 in 10.0 mi ESE 8.1 mph - N/A   Overcast
10:53 AM 77.0 °F 71.1 °F 82% 30.12 in 10.0 mi ESE 10.4 mph - N/A   Clear
11:53 AM 78.1 °F 72.0 °F 81% 30.11 in 10.0 mi ESE 11.5 mph - N/A   Partly Cloudy
12:53 PM 79.0 °F 72.0 °F 79% 30.09 in 10.0 mi ESE 9.2 mph - N/A   Clear
1:53 PM 79.0 °F 72.0 °F 79% 30.07 in 10.0 mi ESE 10.4 mph - N/A   Clear
2:53 PM 79.0 °F 72.0 °F 79% 30.06 in 10.0 mi ESE 9.2 mph - N/A   Clear
3:53 PM 78.1 °F 72.0 °F 81% 30.06 in 10.0 mi East 10.4 mph - N/A   Clear
4:53 PM 78.1 °F 72.0 °F 81% 30.06 in 10.0 mi East 6.9 mph - N/A   Clear
5:53 PM 75.9 °F 71.1 °F 85% 30.07 in 10.0 mi ESE 9.2 mph - N/A   Clear
6:53 PM 75.0 °F 71.1 °F 87% 30.08 in 10.0 mi East 6.9 mph - N/A   Clear
7:53 PM 75.0 °F 72.0 °F 90% 30.09 in 10.0 mi East 6.9 mph - N/A   Clear
8:53 PM 73.9 °F 72.0 °F 93% 30.10 in 10.0 mi East 5.8 mph - N/A   Clear
9:53 PM 73.9 °F 72.0 °F 93% 30.10 in 10.0 mi East 6.9 mph - N/A   Clear
10:53 PM 73.9 °F 72.0 °F 93% 30.10 in 10.0 mi East 8.1 mph - N/A   Clear
11:53 PM 73.9 °F 71.1 °F 91% 30.09 in 10.0 mi East 11.5 mph - N/A   Clear